DLH453 KLAX-EDDM

Flight info

Callsign DLH453
Flight time N/A
Altitude 35000
Route OSHNN1 BEALE DCT BAWER DCT KU54Q DCT KD60S DCT KD66U DCT KD72W DCT KD78Y DCT KP84A DCT KP12G/N0486F370 DCT 4930N09000W 56N080W 61N070W DCT FEDDY DCT BERUS/M082F370 DCT CLAVY DCT 65N050W/M083F390 65N040W 64N030W 62N020W DCT BALIX/N0477F390 DCT NINEX DCT GIVEM DCT RODSI DCT TOPPA DCT DIXAT DCT DOJOH DCT DODEN/N0437F330 DCT TABUM DCT BOMBI T104 HAREM/N0389F270 T104 ROKIL ROKIL1B
Aircraft A388/J-SADE2E3GHIJ3J4J5LM1OP2RWXYZ/LB1D1

Departure

Time 2026-05-06 01:16
Airport Los Angeles International Airport (KLAX)

Arrival

Time N/A
Airport Munich Airport (EDDM)
Time Latitude Longitude Altitude Speed Heading
2026-05-06 00:33 33.94177 -118.41102 98 ft 0 kts 83°
2026-05-06 01:01 33.94175 -118.41119 100 ft 4 kts 83°
2026-05-06 01:01 33.94172 -118.41151 95 ft 4 kts 83°
2026-05-06 01:01 33.94169 -118.41176 100 ft 4 kts 75°
2026-05-06 01:02 33.94160 -118.41196 96 ft 4 kts 37°
2026-05-06 01:02 33.94144 -118.41202 97 ft 4 kts 356°
2026-05-06 01:02 33.94119 -118.41198 97 ft 4 kts 353°
2026-05-06 01:02 33.94099 -118.41195 97 ft 0 kts 353°
2026-05-06 01:08 33.94119 -118.41198 97 ft 6 kts 353°
2026-05-06 01:08 33.94174 -118.41207 100 ft 9 kts 353°
2026-05-06 01:08 33.94243 -118.41217 100 ft 11 kts 352°
2026-05-06 01:09 33.94322 -118.41230 99 ft 12 kts 352°
2026-05-06 01:09 33.94408 -118.41245 99 ft 13 kts 352°
2026-05-06 01:09 33.94500 -118.41261 99 ft 13 kts 352°
2026-05-06 01:09 33.94589 -118.41276 101 ft 13 kts 352°
2026-05-06 01:10 33.94668 -118.41289 99 ft 4 kts 353°
2026-05-06 01:10 33.94677 -118.41291 99 ft 1 kts 356°
2026-05-06 01:10 33.94733 -118.41295 99 ft 11 kts 356°
2026-05-06 01:10 33.94784 -118.41292 100 ft 5 kts 38°
2026-05-06 01:11 33.94808 -118.41238 100 ft 10 kts 77°
2026-05-06 01:11 33.94814 -118.41139 100 ft 13 kts 93°
2026-05-06 01:11 33.94824 -118.41020 101 ft 16 kts 83°
2026-05-06 01:11 33.94840 -118.40873 100 ft 19 kts 82°
2026-05-06 01:12 33.94858 -118.40708 99 ft 21 kts 82°
2026-05-06 01:12 33.94878 -118.40531 102 ft 21 kts 82°
2026-05-06 01:12 33.94897 -118.40362 100 ft 20 kts 82°
2026-05-06 01:12 33.94914 -118.40201 102 ft 18 kts 82°
2026-05-06 01:13 33.94929 -118.40068 98 ft 10 kts 83°
2026-05-06 01:13 33.94931 -118.40049 98 ft 4 kts 83°
2026-05-06 01:13 33.94933 -118.40017 100 ft 0 kts 88°
2026-05-06 01:13 33.94934 -118.40005 99 ft 3 kts 86°
2026-05-06 01:14 33.94935 -118.39978 98 ft 4 kts 83°
2026-05-06 01:14 33.94952 -118.39935 100 ft 7 kts 40°
2026-05-06 01:14 33.95006 -118.39921 98 ft 10 kts 350°
2026-05-06 01:15 33.95035 -118.39964 100 ft 10 kts 279°
2026-05-06 01:15 33.95015 -118.40176 105 ft 56 kts 261°
2026-05-06 01:15 33.94939 -118.40939 102 ft 124 kts 263°
2026-05-06 01:15 33.94808 -118.42147 177 ft 159 kts 262°
2026-05-06 01:16 33.94616 -118.43465 678 ft 167 kts 258°
2026-05-06 01:16 33.94416 -118.44832 1304 ft 163 kts 264°
2026-05-06 01:16 33.94309 -118.46169 1930 ft 161 kts 266°
2026-05-06 01:16 33.94277 -118.47590 2186 ft 178 kts 271°
2026-05-06 01:17 33.94273 -118.49145 2358 ft 192 kts 269°
2026-05-06 01:17 33.94237 -118.50818 2433 ft 207 kts 266°
2026-05-06 01:17 33.94099 -118.52597 2506 ft 224 kts 265°
2026-05-06 01:17 33.93943 -118.54529 2837 ft 239 kts 265°
2026-05-06 01:18 33.93781 -118.56579 3228 ft 249 kts 265°
2026-05-06 01:18 33.93613 -118.58715 3723 ft 258 kts 265°
2026-05-06 01:18 33.93397 -118.60838 4521 ft 258 kts 255°
2026-05-06 01:18 33.92538 -118.62735 5197 ft 265 kts 228°
2026-05-06 01:19 33.90999 -118.63981 5805 ft 273 kts 200°
2026-05-06 01:19 33.89100 -118.64278 6436 ft 281 kts 179°
2026-05-06 01:19 33.87136 -118.64109 7061 ft 285 kts 175°
2026-05-06 01:19 33.85172 -118.63862 7740 ft 286 kts 169°
2026-05-06 01:20 33.83264 -118.63095 8364 ft 291 kts 152°
2026-05-06 01:20 33.81551 -118.61748 8879 ft 298 kts 143°
2026-05-06 01:20 33.79863 -118.60325 9711 ft 295 kts 144°
2026-05-06 01:20 33.78148 -118.58916 10205 ft 304 kts 145°
2026-05-06 01:21 33.76346 -118.57450 10393 ft 322 kts 144°
2026-05-06 01:21 33.74440 -118.55905 10558 ft 339 kts 145°
2026-05-06 01:21 33.72446 -118.54290 10817 ft 351 kts 144°
2026-05-06 01:21 33.70535 -118.52425 11253 ft 354 kts 130°
2026-05-06 01:22 33.69169 -118.50073 11871 ft 352 kts 114°
2026-05-06 01:22 33.68306 -118.47324 12412 ft 352 kts 105°
2026-05-06 01:22 33.67502 -118.44515 12869 ft 357 kts 108°
2026-05-06 01:22 33.66666 -118.41695 13399 ft 362 kts 108°
2026-05-06 01:23 33.65817 -118.38853 13957 ft 363 kts 107°
2026-05-06 01:23 33.65013 -118.35960 14459 ft 364 kts 103°
2026-05-06 01:23 33.64544 -118.32990 15063 ft 363 kts 94°
2026-05-06 01:23 33.64436 -118.29980 15500 ft 364 kts 86°
2026-05-06 01:24 33.64468 -118.26929 16004 ft 366 kts 88°
2026-05-06 01:24 33.64474 -118.23860 16509 ft 369 kts 88°
2026-05-06 01:24 33.64603 -118.20786 16973 ft 369 kts 77°
2026-05-06 01:24 33.65468 -118.17911 17440 ft 369 kts 59°
2026-05-06 01:25 33.67075 -118.15523 17972 ft 368 kts 40°
2026-05-06 01:25 33.69128 -118.13665 18341 ft 372 kts 35°
2026-05-06 01:25 33.71228 -118.11845 18810 ft 373 kts 35°
2026-05-06 01:25 33.73331 -118.10004 19236 ft 374 kts 36°
2026-05-06 01:26 33.75431 -118.08143 19550 ft 377 kts 36°
2026-05-06 01:26 33.77535 -118.06263 20013 ft 378 kts 36°
2026-05-06 01:26 33.79638 -118.04377 20471 ft 377 kts 36°
2026-05-06 01:26 33.81748 -118.02481 20846 ft 379 kts 36°
2026-05-06 01:27 33.83861 -118.00580 21226 ft 383 kts 36°
2026-05-06 01:27 33.85976 -117.98677 21585 ft 384 kts 37°
2026-05-06 01:27 33.88152 -117.96720 22036 ft 384 kts 37°
2026-05-06 01:27 33.90296 -117.94789 22373 ft 388 kts 37°
2026-05-06 01:28 33.92430 -117.92858 22747 ft 390 kts 37°
2026-05-06 01:28 33.94591 -117.90883 23129 ft 391 kts 38°
2026-05-06 01:28 33.96761 -117.88894 23491 ft 393 kts 38°
2026-05-06 01:28 33.98946 -117.86893 23832 ft 396 kts 38°
2026-05-06 01:29 34.01147 -117.84877 24160 ft 397 kts 38°
2026-05-06 01:29 34.03347 -117.82861 24463 ft 399 kts 37°
2026-05-06 01:29 34.05565 -117.80829 24759 ft 401 kts 37°
2026-05-06 01:29 34.07775 -117.78764 25062 ft 403 kts 40°
2026-05-06 01:30 34.09806 -117.76417 25404 ft 405 kts 47°
2026-05-06 01:30 34.11607 -117.73802 25710 ft 407 kts 51°
2026-05-06 01:30 34.13383 -117.71138 26024 ft 409 kts 50°
2026-05-06 01:30 34.15193 -117.68462 26361 ft 412 kts 50°
2026-05-06 01:31 34.17009 -117.65779 26701 ft 414 kts 50°
2026-05-06 01:31 34.18836 -117.63075 27053 ft 416 kts 51°
2026-05-06 01:31 34.20642 -117.60393 27868 ft 407 kts 51°
2026-05-06 01:31 34.22432 -117.57727 28251 ft 410 kts 51°
2026-05-06 01:32 34.24233 -117.55046 28621 ft 413 kts 51°
2026-05-06 01:32 34.26048 -117.52345 29020 ft 414 kts 51°
2026-05-06 01:32 34.27870 -117.49630 29401 ft 417 kts 51°
2026-05-06 01:32 34.29697 -117.46906 29817 ft 419 kts 51°
2026-05-06 01:33 34.31535 -117.44161 30168 ft 421 kts 51°
2026-05-06 01:33 34.33387 -117.41394 30420 ft 425 kts 51°
2026-05-06 01:33 34.35255 -117.38600 30652 ft 429 kts 51°
2026-05-06 01:33 34.37141 -117.35777 30913 ft 433 kts 50°
2026-05-06 01:34 34.39043 -117.32927 31162 ft 437 kts 50°
2026-05-06 01:34 34.40959 -117.30055 31404 ft 441 kts 50°
2026-05-06 01:34 34.42891 -117.27157 31646 ft 445 kts 50°
2026-05-06 01:34 34.44843 -117.24225 31888 ft 448 kts 50°
2026-05-06 01:35 34.46810 -117.21271 32164 ft 452 kts 50°
2026-05-06 01:35 34.48792 -117.18290 32366 ft 456 kts 50°
2026-05-06 01:35 34.50784 -117.15291 32679 ft 458 kts 50°
2026-05-06 01:35 34.52788 -117.12273 32911 ft 462 kts 50°
2026-05-06 01:36 34.54809 -117.09227 33105 ft 465 kts 50°
2026-05-06 01:36 34.56866 -117.06203 33594 ft 463 kts 49°
2026-05-06 01:36 34.58938 -117.03206 33861 ft 466 kts 49°
2026-05-06 01:36 34.61036 -117.00173 34015 ft 471 kts 49°
2026-05-06 01:37 34.63148 -116.97109 34199 ft 474 kts 49°
2026-05-06 01:37 34.65262 -116.94031 34430 ft 477 kts 49°
2026-05-06 01:37 34.67387 -116.90930 34671 ft 479 kts 49°
2026-05-06 01:37 34.69518 -116.87816 34932 ft 480 kts 49°
2026-05-06 01:38 34.71663 -116.84676 35149 ft 483 kts 49°
2026-05-06 01:38 34.73820 -116.81518 35346 ft 487 kts 49°
2026-05-06 01:38 34.75984 -116.78347 35539 ft 490 kts 49°
2026-05-06 01:38 34.78166 -116.75146 35819 ft 491 kts 49°
2026-05-06 01:39 34.82545 -116.68711 35889 ft 492 kts 49°
2026-05-06 01:39 34.86903 -116.62341 35881 ft 489 kts 47°
2026-05-06 01:40 34.91515 -116.56228 35873 ft 488 kts 46°
2026-05-06 01:40 34.96089 -116.50207 35856 ft 482 kts 47°
2026-05-06 01:41 35.00614 -116.44166 35837 ft 484 kts 47°
2026-05-06 01:41 35.05126 -116.38111 35828 ft 487 kts 47°
2026-05-06 01:42 35.09149 -116.32701 35827 ft 485 kts 47°
2026-05-06 01:42 35.13676 -116.26604 35817 ft 483 kts 47°
2026-05-06 01:43 35.18185 -116.20522 35781 ft 483 kts 47°
2026-05-06 01:43 35.22689 -116.14435 35833 ft 485 kts 47°
2026-05-06 01:44 35.27200 -116.08327 35842 ft 480 kts 47°
2026-05-06 01:44 35.31669 -116.02264 35842 ft 480 kts 47°
2026-05-06 01:45 35.36141 -115.96189 35855 ft 480 kts 47°
2026-05-06 01:45 35.40616 -115.90098 35861 ft 481 kts 47°
2026-05-06 01:46 35.45092 -115.83995 35875 ft 481 kts 48°
2026-05-06 01:46 35.49562 -115.77888 35879 ft 482 kts 48°
2026-05-06 01:47 35.54037 -115.71764 35887 ft 482 kts 48°
2026-05-06 01:47 35.58511 -115.65631 35888 ft 482 kts 48°
2026-05-06 01:48 35.62981 -115.59490 35874 ft 483 kts 48°
2026-05-06 01:48 35.67463 -115.53324 35876 ft 484 kts 48°
2026-05-06 01:49 35.71943 -115.47149 35887 ft 484 kts 48°
2026-05-06 01:49 35.76396 -115.40996 35892 ft 485 kts 48°
2026-05-06 01:50 35.80878 -115.34793 35885 ft 485 kts 48°
2026-05-06 01:50 35.85362 -115.28575 35904 ft 485 kts 48°
2026-05-06 01:51 35.89844 -115.22350 35912 ft 484 kts 48°
2026-05-06 01:51 35.94310 -115.16135 35913 ft 483 kts 48°
2026-05-06 01:52 35.98752 -115.09942 35902 ft 481 kts 48°
2026-05-06 01:52 36.03176 -115.03763 35883 ft 479 kts 48°
2026-05-06 01:53 36.07584 -114.97595 35811 ft 478 kts 48°
2026-05-06 01:53 36.11981 -114.91430 35756 ft 478 kts 48°
2026-05-06 01:54 36.16374 -114.85259 35752 ft 478 kts 49°
2026-05-06 01:54 36.20497 -114.78806 35747 ft 478 kts 54°
2026-05-06 01:55 36.24403 -114.72179 35800 ft 477 kts 53°
2026-05-06 01:55 36.28317 -114.65567 35784 ft 475 kts 53°